TimeCST,TemperatureF,Dew PointF,Humidity,Sea Level PressureIn,VisibilityMPH,Wind Direction,Wind SpeedMPH,Gust SpeedMPH,PrecipitationIn,Events,Conditions,WindDirDegrees,DateUTC
12:54 AM,50.0,45.0,83,30.12,10.0,South,18.4,-,0.03,Rain,Light Rain,170,2012-11-19 06:54:00
1:54 AM,50.0,45.0,83,30.11,10.0,South,16.1,-,0.00,,Overcast,170,2012-11-19 07:54:00
2:54 AM,50.0,44.1,80,30.11,10.0,SSE,12.7,-,N/A,,Scattered Clouds,160,2012-11-19 08:54:00
3:54 AM,50.0,44.1,80,30.09,10.0,SSE,15.0,-,N/A,,Clear,160,2012-11-19 09:54:00
4:54 AM,50.0,43.0,77,30.09,10.0,SSE,13.8,-,N/A,,Clear,160,2012-11-19 10:54:00
5:54 AM,48.9,42.1,77,30.10,10.0,SSE,5.8,-,N/A,,Clear,150,2012-11-19 11:54:00
6:54 AM,48.0,42.1,80,30.11,10.0,SE,5.8,-,N/A,,Clear,130,2012-11-19 12:54:00
7:54 AM,48.0,43.0,83,30.13,10.0,SSE,5.8,-,N/A,,Clear,160,2012-11-19 13:54:00
8:54 AM,53.1,44.1,71,30.14,10.0,South,11.5,-,N/A,,Clear,170,2012-11-19 14:54:00
9:54 AM,57.0,45.0,64,30.14,10.0,South,9.2,-,N/A,,Clear,190,2012-11-19 15:54:00
10:54 AM,60.1,48.0,64,30.14,10.0,SSW,10.4,-,N/A,,Clear,200,2012-11-19 16:54:00
11:54 AM,64.0,50.0,60,30.13,-9999.0,SSW,5.8,-,N/A,,Clear,210,2012-11-19 17:54:00
12:54 PM,64.9,51.1,61,30.11,10.0,West,5.8,-,N/A,,Clear,270,2012-11-19 18:54:00
1:54 PM,66.0,52.0,60,30.09,10.0,South,4.6,-,N/A,,Clear,180,2012-11-19 19:54:00
2:54 PM,68.0,53.1,59,30.09,10.0,SW,8.1,-,N/A,,Clear,220,2012-11-19 20:54:00
3:54 PM,68.0,53.1,59,30.09,10.0,SSW,6.9,-,N/A,,Clear,200,2012-11-19 21:54:00
4:54 PM,63.0,53.1,70,30.09,10.0,SSW,6.9,-,N/A,,Clear,200,2012-11-19 22:54:00
5:54 PM,55.0,50.0,83,30.13,10.0,Calm,Calm,-,N/A,,Clear,0,2012-11-19 23:54:00
6:54 PM,52.0,48.0,86,30.15,10.0,Calm,Calm,-,N/A,,Clear,0,2012-11-20 00:54:00
7:54 PM,48.9,46.9,93,30.15,10.0,Calm,Calm,-,N/A,,Clear,0,2012-11-20 01:54:00
9:54 PM,48.0,46.9,96,30.15,8.0,Calm,Calm,-,N/A,,Clear,0,2012-11-20 03:54:00
10:54 PM,46.0,44.1,93,30.16,7.0,Calm,Calm,-,N/A,,Clear,0,2012-11-20 04:54:00
11:54 PM,44.1,42.1,93,30.16,6.0,Calm,Calm,-,N/A,,Clear,0,2012-11-20 05:54:00